Time,TemperatureF,DewpointF,PressureIn,WindDirection,WindDirectionDegrees,WindSpeedMPH,WindSpeedGustMPH,Humidity,HourlyPrecipIn,Conditions,Clouds,dailyrainin,SoftwareType,DateUTC
2013-08-20 00:04:00,59.5,58.0,30.02,NW,322,0.0,1.0,96,0.00,,,0.00,weatherlink.com 1.10,2013-08-20 04:04:00,
2013-08-20 00:19:00,59.4,58.0,30.02,NW,322,1.0,2.0,96,0.00,,,0.00,weatherlink.com 1.10,2013-08-20 04:19:00,
2013-08-20 00:34:00,59.5,58.0,30.02,NW,322,0.0,1.0,96,0.00,,,0.00,weatherlink.com 1.10,2013-08-20 04:34:00,
2013-08-20 00:49:00,59.1,58.0,30.02,NW,307,0.0,1.0,96,0.00,,,0.00,weatherlink.com 1.10,2013-08-20 04:49:00,
2013-08-20 01:04:00,59.0,58.0,30.03,NW,308,0.0,0.0,96,0.00,,,0.00,weatherlink.com 1.10,2013-08-20 05:04:00,
2013-08-20 01:19:00,58.7,58.0,30.02,NW,316,0.0,2.0,97,0.00,,,0.00,weatherlink.com 1.10,2013-08-20 05:19:00,
2013-08-20 01:34:00,58.5,58.0,30.03,NW,316,0.0,1.0,97,0.00,,,0.00,weatherlink.com 1.10,2013-08-20 05:34:00,
2013-08-20 01:49:00,58.2,57.0,30.02,NW,316,0.0,1.0,97,0.00,,,0.00,weatherlink.com 1.10,2013-08-20 05:49:00,
2013-08-20 02:04:00,58.0,57.0,30.02,NW,316,0.0,0.0,97,0.00,,,0.00,weatherlink.com 1.10,2013-08-20 06:04:00,
2013-08-20 02:19:00,57.6,57.0,30.02,NNE,18,0.0,0.0,97,0.00,,,0.00,weatherlink.com 1.10,2013-08-20 06:19:00,
2013-08-20 02:35:00,57.4,57.0,30.03,NNE,18,0.0,0.0,98,0.00,,,0.00,weatherlink.com 1.10,2013-08-20 06:35:00,
2013-08-20 02:50:00,57.2,57.0,30.03,NNE,18,0.0,0.0,98,0.00,,,0.00,weatherlink.com 1.10,2013-08-20 06:50:00,
2013-08-20 03:05:00,57.2,57.0,30.04,NNE,18,0.0,0.0,98,0.00,,,0.00,weatherlink.com 1.10,2013-08-20 07:05:00,
2013-08-20 03:20:00,56.8,56.0,30.03,NNE,18,0.0,0.0,98,0.00,,,0.00,weatherlink.com 1.10,2013-08-20 07:20:00,
2013-08-20 03:35:00,56.5,56.0,30.03,NNE,18,0.0,0.0,98,0.00,,,0.00,weatherlink.com 1.10,2013-08-20 07:35:00,
2013-08-20 03:50:00,56.1,56.0,30.03,NNE,18,0.0,0.0,98,0.00,,,0.00,weatherlink.com 1.10,2013-08-20 07:50:00,
2013-08-20 04:05:00,56.2,56.0,30.03,NNE,18,0.0,1.0,98,0.00,,,0.00,weatherlink.com 1.10,2013-08-20 08:05:00,
2013-08-20 04:20:00,55.9,55.0,30.04,NNE,18,0.0,1.0,98,0.00,,,0.00,weatherlink.com 1.10,2013-08-20 08:20:00,
2013-08-20 04:35:00,55.9,56.0,30.04,NNE,16,0.0,0.0,99,0.00,,,0.00,weatherlink.com 1.10,2013-08-20 08:35:00,
2013-08-20 04:50:00,55.4,55.0,30.04,NNE,16,0.0,0.0,98,0.00,,,0.00,weatherlink.com 1.10,2013-08-20 08:50:00,
2013-08-20 05:05:00,55.3,55.0,30.04,NNE,18,0.0,0.0,99,0.00,,,0.00,weatherlink.com 1.10,2013-08-20 09:05:00,
2013-08-20 05:20:00,55.0,55.0,30.05,NNE,18,0.0,0.0,98,0.00,,,0.00,weatherlink.com 1.10,2013-08-20 09:20:00,
2013-08-20 05:35:00,54.7,54.0,30.05,NNE,18,0.0,0.0,98,0.00,,,0.00,weatherlink.com 1.10,2013-08-20 09:35:00,
2013-08-20 05:50:00,54.6,54.0,30.05,NNE,18,0.0,0.0,99,0.00,,,0.00,weatherlink.com 1.10,2013-08-20 09:50:00,
2013-08-20 06:05:00,54.7,55.0,30.06,NNE,18,0.0,0.0,99,0.00,,,0.00,weatherlink.com 1.10,2013-08-20 10:05:00,
2013-08-20 06:20:00,54.3,54.0,30.07,NNE,22,0.0,1.0,99,0.00,,,0.00,weatherlink.com 1.10,2013-08-20 10:20:00,
2013-08-20 06:35:00,53.9,54.0,30.07,NNE,22,0.0,0.0,99,0.00,,,0.00,weatherlink.com 1.10,2013-08-20 10:35:00,
2013-08-20 06:50:00,54.5,54.0,30.07,NNE,22,0.0,0.0,99,0.00,,,0.00,weatherlink.com 1.10,2013-08-20 10:50:00,
2013-08-20 07:05:00,55.2,55.0,30.08,NNE,22,0.0,0.0,99,0.00,,,0.00,weatherlink.com 1.10,2013-08-20 11:05:00,
2013-08-20 07:20:00,56.2,56.0,30.08,NNE,22,0.0,0.0,99,0.00,,,0.00,weatherlink.com 1.10,2013-08-20 11:20:00,
2013-08-20 07:35:00,57.2,57.0,30.09,NNE,22,0.0,0.0,99,0.00,,,0.00,weatherlink.com 1.10,2013-08-20 11:35:00,
2013-08-20 07:50:00,58.5,58.0,30.09,NNE,20,0.0,1.0,99,0.00,,,0.00,weatherlink.com 1.10,2013-08-20 11:50:00,
2013-08-20 08:05:00,59.7,60.0,30.09,NNE,20,0.0,0.0,99,0.00,,,0.00,weatherlink.com 1.10,2013-08-20 12:05:00,
2013-08-20 08:20:00,61.2,61.0,30.09,NNE,26,0.0,0.0,99,0.00,,,0.00,weatherlink.com 1.10,2013-08-20 12:20:00,
2013-08-20 08:35:00,62.6,62.0,30.10,ENE,69,0.0,1.0,99,0.00,,,0.00,weatherlink.com 1.10,2013-08-20 12:35:00,
2013-08-20 08:50:00,63.8,64.0,30.10,NE,36,1.0,2.0,99,0.00,,,0.00,weatherlink.com 1.10,2013-08-20 12:50:00,
2013-08-20 09:05:00,65.5,64.0,30.11,NE,39,0.0,2.0,96,0.00,,,0.00,weatherlink.com 1.10,2013-08-20 13:05:00,
2013-08-20 09:20:00,66.6,65.0,30.11,North,11,1.0,3.0,93,0.00,,,0.00,weatherlink.com 1.10,2013-08-20 13:20:00,
2013-08-20 09:35:00,67.7,65.0,30.11,ENE,65,2.0,3.0,91,0.00,,,0.00,weatherlink.com 1.10,2013-08-20 13:35:00,
2013-08-20 09:51:00,69.5,66.0,30.11,NE,36,0.0,-999.0,88,-99.99,,,0.00,weatherlink.com 1.10,2013-08-20 13:51:00,
2013-08-20 10:06:00,71.1,66.0,30.11,NNE,20,0.0,2.0,84,0.00,,,0.00,weatherlink.com 1.10,2013-08-20 14:06:00,
2013-08-20 10:21:00,73.0,67.0,30.11,NE,50,0.0,2.0,80,0.00,,,0.00,weatherlink.com 1.10,2013-08-20 14:21:00,
2013-08-20 10:36:00,74.1,66.0,30.11,ENE,75,1.0,2.0,75,0.00,,,0.00,weatherlink.com 1.10,2013-08-20 14:36:00,
2013-08-20 10:51:00,75.7,66.0,30.11,SE,127,0.0,1.0,73,0.00,,,0.00,weatherlink.com 1.10,2013-08-20 14:51:00,
2013-08-20 11:06:00,76.9,68.0,30.10,NE,54,0.0,2.0,74,0.00,,,0.00,weatherlink.com 1.10,2013-08-20 15:06:00,
2013-08-20 11:21:00,78.8,69.0,30.10,ENE,71,2.0,3.0,71,0.00,,,0.00,weatherlink.com 1.10,2013-08-20 15:21:00,
2013-08-20 11:36:00,78.7,69.0,30.10,NE,50,1.0,3.0,73,0.00,,,0.00,weatherlink.com 1.10,2013-08-20 15:36:00,
2013-08-20 11:51:00,80.1,70.0,30.10,South,170,0.0,3.0,71,0.00,,,0.00,weatherlink.com 1.10,2013-08-20 15:51:00,
2013-08-20 12:06:00,81.2,70.0,30.09,NE,43,0.0,4.0,68,0.00,,,0.00,weatherlink.com 1.10,2013-08-20 16:06:00,
2013-08-20 12:21:00,82.0,70.0,30.09,NNE,20,0.0,2.0,68,0.00,,,0.00,weatherlink.com 1.10,2013-08-20 16:21:00,
2013-08-20 12:36:00,83.2,68.0,30.09,SSW,210,0.0,1.0,60,0.00,,,0.00,weatherlink.com 1.10,2013-08-20 16:36:00,
2013-08-20 12:51:00,84.1,72.0,30.09,ENE,71,0.0,2.0,67,0.00,,,0.00,weatherlink.com 1.10,2013-08-20 16:51:00,
2013-08-20 13:06:00,84.5,69.0,30.08,NW,309,0.0,3.0,60,0.00,,,0.00,weatherlink.com 1.10,2013-08-20 17:06:00,
2013-08-20 13:21:00,84.9,71.0,30.08,West,264,0.0,4.0,64,0.00,,,0.00,weatherlink.com 1.10,2013-08-20 17:21:00,
2013-08-20 13:36:00,83.3,63.0,30.08,NW,312,5.0,8.0,51,0.00,,,0.00,weatherlink.com 1.10,2013-08-20 17:36:00,
2013-08-20 13:51:00,84.3,64.0,30.07,ESE,105,1.0,3.0,50,0.00,,,0.00,weatherlink.com 1.10,2013-08-20 17:51:00,
2013-08-20 14:06:00,82.9,64.0,30.07,West,267,3.0,6.0,53,0.00,,,0.00,weatherlink.com 1.10,2013-08-20 18:06:00,
2013-08-20 14:21:00,81.0,64.0,30.07,SW,229,2.0,3.0,57,0.00,,,0.00,weatherlink.com 1.10,2013-08-20 18:21:00,
2013-08-20 14:36:00,82.1,65.0,30.07,NE,43,1.0,8.0,57,0.00,,,0.00,weatherlink.com 1.10,2013-08-20 18:36:00,
2013-08-20 14:51:00,83.6,66.0,30.06,NW,316,2.0,6.0,56,0.00,,,0.00,weatherlink.com 1.10,2013-08-20 18:51:00,
2013-08-20 15:06:00,83.4,63.0,30.06,WNW,293,2.0,5.0,51,0.00,,,0.00,weatherlink.com 1.10,2013-08-20 19:06:00,
2013-08-20 15:21:00,84.0,65.0,30.06,NNW,336,3.0,4.0,53,0.00,,,0.00,weatherlink.com 1.10,2013-08-20 19:21:00,
2013-08-20 15:36:00,84.2,65.0,30.06,NNW,328,1.0,6.0,53,0.00,,,0.00,weatherlink.com 1.10,2013-08-20 19:36:00,
2013-08-20 15:51:00,83.9,63.0,30.06,NW,309,2.0,9.0,50,0.00,,,0.00,weatherlink.com 1.10,2013-08-20 19:51:00,
2013-08-20 16:06:00,84.1,65.0,30.06,NW,315,3.0,7.0,52,0.00,,,0.00,weatherlink.com 1.10,2013-08-20 20:06:00,
2013-08-20 16:21:00,83.8,64.0,30.06,NNW,332,2.0,4.0,52,0.00,,,0.00,weatherlink.com 1.10,2013-08-20 20:21:00,
2013-08-20 16:36:00,83.2,64.0,30.06,NW,322,1.0,6.0,52,0.00,,,0.00,weatherlink.com 1.10,2013-08-20 20:36:00,
2013-08-20 16:51:00,83.4,64.0,30.06,WNW,300,2.0,5.0,53,0.00,,,0.00,weatherlink.com 1.10,2013-08-20 20:51:00,
2013-08-20 17:06:00,83.4,66.0,30.06,WNW,294,1.0,4.0,56,0.00,,,0.00,weatherlink.com 1.10,2013-08-20 21:06:00,
2013-08-20 17:21:00,83.3,66.0,30.06,NW,316,2.0,7.0,56,0.00,,,0.00,weatherlink.com 1.10,2013-08-20 21:21:00,
2013-08-20 17:36:00,84.0,67.0,30.06,NW,306,1.0,3.0,56,0.00,,,0.00,weatherlink.com 1.10,2013-08-20 21:36:00,
2013-08-20 17:51:00,83.5,67.0,30.06,WNW,291,2.0,5.0,58,0.00,,,0.00,weatherlink.com 1.10,2013-08-20 21:51:00,
2013-08-20 18:06:00,82.3,66.0,30.06,WNW,285,1.0,5.0,59,0.00,,,0.00,weatherlink.com 1.10,2013-08-20 22:06:00,
2013-08-20 18:22:00,81.1,68.0,30.06,WSW,253,0.0,1.0,65,0.00,,,0.00,weatherlink.com 1.10,2013-08-20 22:22:00,
2013-08-20 18:37:00,79.1,68.0,30.06,WSW,248,0.0,0.0,69,0.00,,,0.00,weatherlink.com 1.10,2013-08-20 22:37:00,
2013-08-20 18:52:00,77.4,68.0,30.06,SW,215,0.0,1.0,72,0.00,,,0.00,weatherlink.com 1.10,2013-08-20 22:52:00,
2013-08-20 19:07:00,75.8,67.0,30.06,SW,215,0.0,0.0,74,0.00,,,0.00,weatherlink.com 1.10,2013-08-20 23:07:00,
2013-08-20 19:22:00,74.0,67.0,30.07,SW,215,0.0,0.0,78,0.00,,,0.00,weatherlink.com 1.10,2013-08-20 23:22:00,
2013-08-20 19:37:00,72.0,66.0,30.07,SW,215,0.0,0.0,82,0.00,,,0.00,weatherlink.com 1.10,2013-08-20 23:37:00,
2013-08-20 19:52:00,70.3,66.0,30.07,SW,215,0.0,0.0,85,0.00,,,0.00,weatherlink.com 1.10,2013-08-20 23:52:00,
2013-08-20 20:07:00,68.9,65.0,30.07,SW,215,0.0,0.0,88,0.00,,,0.00,weatherlink.com 1.10,2013-08-21 00:07:00,
2013-08-20 20:22:00,67.7,64.0,30.07,SW,215,0.0,0.0,89,0.00,,,0.00,weatherlink.com 1.10,2013-08-21 00:22:00,
2013-08-20 20:37:00,66.9,64.0,30.08,SW,215,0.0,0.0,91,0.00,,,0.00,weatherlink.com 1.10,2013-08-21 00:37:00,
2013-08-20 20:52:00,65.9,64.0,30.08,SW,214,0.0,0.0,92,0.00,,,0.00,weatherlink.com 1.10,2013-08-21 00:52:00,
2013-08-20 21:07:00,65.5,64.0,30.09,SW,215,0.0,0.0,93,0.00,,,0.00,weatherlink.com 1.10,2013-08-21 01:07:00,
2013-08-20 21:22:00,65.2,64.0,30.09,WSW,238,0.0,0.0,94,0.00,,,0.00,weatherlink.com 1.10,2013-08-21 01:22:00,
2013-08-20 21:37:00,64.8,63.0,30.10,WSW,238,0.0,0.0,94,0.00,,,0.00,weatherlink.com 1.10,2013-08-21 01:37:00,
2013-08-20 21:52:00,64.3,63.0,30.10,WSW,238,0.0,0.0,94,0.00,,,0.00,weatherlink.com 1.10,2013-08-21 01:52:00,
2013-08-20 22:07:00,64.3,63.0,30.10,WSW,238,0.0,0.0,94,0.00,,,0.00,weatherlink.com 1.10,2013-08-21 02:07:00,
2013-08-20 22:22:00,63.9,62.0,30.10,WSW,238,0.0,0.0,93,0.00,,,0.00,weatherlink.com 1.10,2013-08-21 02:22:00,
2013-08-20 22:37:00,63.5,62.0,30.10,WSW,238,0.0,0.0,94,0.00,,,0.00,weatherlink.com 1.10,2013-08-21 02:37:00,
2013-08-20 22:52:00,63.0,61.0,30.10,WSW,238,0.0,0.0,94,0.00,,,0.00,weatherlink.com 1.10,2013-08-21 02:52:00,
2013-08-20 23:07:00,62.5,61.0,30.10,WSW,238,0.0,0.0,95,0.00,,,0.00,weatherlink.com 1.10,2013-08-21 03:07:00,
2013-08-20 23:22:00,62.1,61.0,30.11,WSW,238,0.0,0.0,95,0.00,,,0.00,weatherlink.com 1.10,2013-08-21 03:22:00,
2013-08-20 23:37:00,61.6,60.0,30.11,WSW,238,0.0,0.0,95,0.00,,,0.00,weatherlink.com 1.10,2013-08-21 03:37:00,
2013-08-20 23:52:00,61.3,60.0,30.11,WSW,238,0.0,0.0,96,0.00,,,0.00,weatherlink.com 1.10,2013-08-21 03:52:00,